Location: Fosso Corella
(43.9167°N, 11.5667°E)
Time: 19:10:43
(UTC+00:00)

Cosmos 1727 Rocket - Pass Details

Date: 07 June 2020
Orbit: 960 x 997 km, 82.9° (Epoch: 12 July)

Event Time Altitude Azimuth Distance (km) Brightness Sun altitude
Rises 02:41:42 0° 350° (N) 3,658 7.5 -7.9°
Reaches altitude 10° 02:44:13 10° 349° (N) 2,706 6.8 -7.6°
Maximum altitude 02:50:24 77° 265° (W) 988 4.0 -6.8°
Drops below altitude 10° 02:56:32 10° 180° (S) 2,689 5.9 -5.9°
Sets 02:59:01 0° 179° (S) 3,634 6.6 -5.6°
